Weather in Kultaevo

Russia / Perm Krai     57°53′37″N   55°56′03″E
temp.,
°C
wind,
m/s
gust,
m/s
humid.,
%
clouds,
%
prec.,
mm/h
press.,
hPa
HPBL,
m
28 february, sun
sun2823:00−16e51091100 0.4 1009581
02:00−17e4993100 0.1 1009507
05:00−17e4993100 0.3 1009513
08:00−18ene389499 0.1 1009497
11:00−16ene489099 0.3 1009574
14:00−14ene4789100 0.2 1009638
17:00−13ne4690100 0.4 1010649
20:00−15ne389395 0.2 1012411
1 march, mon
mon123:00−16ene389487 0.3 1014338
02:00−17ne259778 0.1 1015145
05:00−18nne269679 0.1 1017178
08:00−20ne249786 0.0 101887
11:00−17ene239070 0.1 1018270
14:00−12ene118279 0.0 1017449
17:00−12w118589 0.0 1017411
20:00−17ssw129564 0.0 101620
2 march, tue
tue223:00−18ssw229746 0.0 101528
02:00−18ssw289642 0.0 1012206
05:00−16ssw3109370 0.0 1010385
08:00−15ssw41193100 0.1 1006483
11:00−14ssw41193100 0.9 1004532
14:00−13ssw41092100 0.9 1002588
17:00−12s4993100 1.6 1000586
20:00−11s3995100 0.8 999479
3 march, wed
wed323:00−11sse2696100 1.4 999287
02:00−11se1296100 0.3 99742
05:00−12sse1196100 0.3 99720
08:00−15sw119891 0.0 99720
11:00−8sw139392 0.1 997242
14:00−4wsw2594100 0.4 997416
17:00−4wnw4885100 0.9 998787
20:00−6w399598 0.1 998412
4 march, thu
thu423:00−8wnw389398 0.3 1001280
02:00−14wsw249725 0.0 100168
05:00−15wsw239752 0.0 100147
08:00−13sw269688 0.2 1001166
11:00−9sw369393 0.3 1001342
14:00−6sw478795 0.1 999703
17:00−5ssw488597 0.1 998808
20:00−7s41290100 0.1 995706